[[{"header":{"parameterUnit":"m.s-1","parameterCategory":1,"la1":30.2991,"la2":30.254,"lo1":-89.0895,"lo2":-89.0444,"dy":0.0017,"dx":0.0017,"nx":28,"ny":28,"refTime":"2023-05-01T21:00:00:Z","depth":0,"parameterNumber":2,"parameterNumberName":"U-component_of_WINDS"},"data":[0,0,0,0,0,0,0,0,0,0,0,0,0,0,0,0,0,0,0,0,0,0,0,0,0,0,0,0,0,0,0,0,0,0,0,0,0,0,0,0,0,0,0,0,0,0,0,0,0,0,0,0,0,0,0,0,0,0,2.612,2.6121,0,2.6189,2.619,2.6191,2.6166,2.6164,2.6163,2.6161,2.6234,2.6237,2.6241,0,0,0,0,0,0,0,0,0,0,0,0,0,2.5968,2.5971,2.612,2.6121,2.6122,2.6189,2.619,2.6191,2.6166,2.6164,2.6162,2.616,2.6233,2.6237,2.6241,0,0,0,0,0,0,0,0,0,0,0,0,0,2.6035,2.5972,2.612,2.6117,2.6118,2.6189,2.619,2.6191,2.6166,2.6164,2.6162,2.6159,2.6232,2.6237,2.6242,2.632,0,0,2.6257,2.6259,0,0,0,0,0,0,0,0,2.6031,2.6041,2.6117,2.6117,2.6118,2.6166,2.6163,2.6234,2.6167,2.6148,2.6161,2.6158,2.6214,2.622,2.6238,2.6323,2.6327,2.6258,2.6261,2.6263,2.6264,0,0,0,0,0,0,0,2.6027,2.6038,2.6147,2.6118,2.6119,2.6113,2.612,2.6177,2.6193,2.6149,2.6148,2.6156,2.6213,2.6233,2.624,2.6328,2.6257,2.6262,2.6265,2.6267,2.6481,2.6483,0,0,0,0,0,0,2.6022,2.6034,2.6145,2.6149,2.6068,2.6118,2.6126,2.6153,2.6192,2.6196,2.6158,2.6155,2.6226,2.6234,2.6242,2.6336,2.6263,2.6268,2.6271,2.6478,2.6481,2.6484,0,0,0,0,0,0,2.6018,2.6032,2.6142,2.6091,2.6105,2.6123,2.6154,2.6156,2.6176,2.6199,2.6202,2.6175,2.6224,2.6235,2.6301,2.6338,2.627,2.6275,2.6475,2.6479,2.6483,2.6524,0,0,0,0,0,0,2.6014,2.6031,2.606,2.6092,2.6108,2.6199,2.6157,2.6159,2.6184,2.618,2.6216,2.6219,2.6223,2.6293,2.6306,2.6344,2.6279,2.6472,2.6477,2.6482,2.652,2.6529,2.6537,0,0,0,0,0,2.6009,2.6069,2.6062,2.6075,2.6145,2.6201,2.621,2.6213,2.6187,2.6217,2.6232,2.6218,2.6332,2.63,2.6314,2.6354,2.6469,2.6475,2.6481,2.6516,2.6527,2.6537,0,0,0,0,0,0,2.6042,2.6073,2.6065,2.6138,2.6167,2.6197,2.6234,2.6225,2.6262,2.6257,2.626,2.6268,2.6335,2.6352,2.6315,2.6432,2.6397,2.6406,2.6419,2.643,2.6439,2.6433,2.6283,0,0,0,0,0,2.6057,2.61,2.6126,2.6187,2.6202,2.6216,2.6241,2.624,2.6271,2.6283,2.6303,2.6334,2.6376,2.6404,2.6445,2.6523,2.653,2.6557,2.6566,2.6573,2.6581,2.6622,2.6635,2.6503,2.6503,2.6503,0,0,2.609,2.6113,2.6139,2.6195,2.6217,2.6261,2.6227,2.6275,2.6308,2.6291,2.6353,2.6369,2.6404,2.6476,2.6508,2.6491,2.6619,2.6581,2.6586,2.659,2.663,2.6642,2.6653,2.6507,2.6507,2.6506,0,0,2.6172,2.6194,2.6247,2.627,2.6305,2.6314,2.6327,2.6358,2.6368,2.6431,2.6419,2.6459,2.6533,2.6557,2.658,2.6673,2.6661,2.6686,2.6732,2.6772,2.6783,2.6792,2.6824,2.6836,2.6694,2.6694,2.6694,0,2.6208,2.6274,2.6276,2.6325,2.635,2.6336,2.6391,2.6414,2.646,2.6477,2.6458,2.655,2.6572,2.665,2.6672,2.6691,2.6706,2.6681,2.6781,2.679,2.6799,2.6829,2.6842,2.6696,2.6696,2.6696,2.6696,0,2.6316,2.6362,2.6402,2.6446,2.6475,2.6527,2.6538,2.6567,2.6565,2.6576,2.6641,2.6668,2.6713,2.6732,2.673,2.6809,2.6798,2.678,2.6744,2.6814,2.6843,2.6855,2.67,2.6699,2.6699,2.6698,0,0,2.6419,2.6464,2.6479,2.6498,2.6536,2.6572,2.6624,2.6668,2.6693,2.6726,2.6769,2.6833,2.6816,2.6842,2.6843,2.6879,2.695,2.6857,2.6858,2.6872,2.7038,2.705,2.7063,2.6944,2.6946,2.6948,2.7035,0,2.6503,2.6592,2.6596,2.6678,2.672,2.6709,2.6754,2.6782,2.6795,2.6833,2.6847,2.6891,2.6867,2.6883,2.6918,2.6934,2.6983,2.6928,2.6983,2.6985,2.6973,2.7078,2.7091,2.7172,2.7046,2.7048,2.7049,0,2.6612,2.6647,2.6733,2.6765,2.6783,2.6823,2.6864,2.6901,2.6933,2.694,2.6969,2.6965,2.7019,2.6983,2.7057,2.7019,2.7043,2.7054,2.7058,2.7061,2.702,2.7084,2.7198,2.7209,2.7067,2.7066,2.7065,0,2.6676,2.6746,2.6806,2.6824,2.6863,2.6891,2.6909,2.6939,2.6965,2.7002,2.7019,2.7062,2.7084,2.7118,2.7126,2.71,2.72,2.7165,2.7207,2.7206,2.7226,2.7225,2.7344,2.7245,2.7245,2.7244,2.7244,0,2.6768,2.6821,2.6835,2.6872,2.6931,2.6936,2.6995,2.701,2.7038,2.7078,2.7072,2.7109,2.7119,2.7159,2.7167,2.7226,2.7237,2.7244,2.7245,2.7243,2.7242,2.7257,2.7251,2.7248,2.7247,2.7246,2.7246,0,2.6849,2.6861,2.6926,2.6957,2.6967,2.7008,2.7036,2.7072,2.7084,2.7135,2.7147,2.7166,2.7213,2.7226,2.7282,2.7287,2.7357,2.7354,2.7346,2.7345,2.7385,2.7381,2.7517,2.7534,2.7425,2.7426,2.7427,0,2.6905,2.6946,2.6982,2.7008,2.7027,2.7069,2.7096,2.7103,2.7132,2.7172,2.7203,2.7249,2.7286,2.7362,2.7381,2.7425,2.7421,2.7466,2.7428,2.7425,2.742,2.7417,2.742,2.7473,2.7474,2.7475,2.7475,0,2.7005,2.7009,2.7047,2.7088,2.7121,2.7153,2.7185,2.7207,2.7219,2.7251,2.7299,2.7328,2.7385,2.7431,2.7475,2.7494,2.7487,2.7488,2.7499,2.7497,2.749,2.7493,2.7363,2.7484,2.7483,2.7483,2.7482,2.7482,2.7074,2.7109,2.714,2.7183,2.7208,2.7237,2.7272,2.7289,2.7328,2.7375,2.7378,2.7429,2.7462,2.752,2.7541,2.7582,2.7569,2.7586,2.759,2.7594,2.7596,2.7485,2.7591,2.7591,2.759,2.759,2.759,0,2.7171,2.7191,2.7231,2.7275,2.7309,2.73,2.7334,2.7364,2.7409,2.7439,2.7476,2.7531,2.7576,2.7599,2.7644,2.7672,2.767,2.7683,2.768,2.7685,2.7607,2.7591,2.7684,2.7684,2.7684,2.7684,2.7684,2.7684,2.7225,2.7284,2.7292,2.7363,2.7382,2.7432,2.7452,2.748,2.7504,2.7566,2.7602,2.7618,2.7646,2.7692,2.7733,2.7739,2.7755,2.777,2.7774,2.77,2.769,2.7681,2.7666,2.7774,2.7774,2.7848,2.7849,2.785]},{"header":{"parameterUnit":"m.s-1","parameterCategory":1,"la1":30.2991,"la2":30.254,"lo1":-89.0895,"lo2":-89.0444,"dy":0.0017,"dx":0.0017,"nx":28,"ny":28,"refTime":"2023-05-01T21:00:00:Z","depth":0,"parameterNumber":3,"parameterNumberName":"V-component_of_WINDS"},"data":[0,0,0,0,0,0,0,0,0,0,0,0,0,0,0,0,0,0,0,0,0,0,0,0,0,0,0,0,0,0,0,0,0,0,0,0,0,0,0,0,0,0,0,0,0,0,0,0,0,0,0,0,0,0,0,0,0,0,0.6554,0.6555,0,0.6652,0.6653,0.6654,0.6655,0.6653,0.6652,0.6651,0.6753,0.6757,0.6761,0,0,0,0,0,0,0,0,0,0,0,0,0,0.6368,0.6372,0.6554,0.6555,0.6556,0.6652,0.6653,0.6654,0.6655,0.6653,0.6652,0.665,0.6752,0.6757,0.6761,0,0,0,0,0,0,0,0,0,0,0,0,0,0.6456,0.6373,0.6553,0.6568,0.657,0.6651,0.6653,0.6655,0.6655,0.6653,0.6651,0.6649,0.675,0.6756,0.6762,0.6836,0,0,0.678,0.6782,0,0,0,0,0,0,0,0,0.6451,0.6463,0.6564,0.6567,0.657,0.6639,0.6625,0.6716,0.6656,0.6623,0.6651,0.6649,0.6717,0.6725,0.6748,0.6841,0.6845,0.678,0.6784,0.6786,0.6788,0,0,0,0,0,0,0,0.6445,0.6458,0.6593,0.6566,0.6569,0.657,0.658,0.6642,0.6679,0.6626,0.6626,0.6637,0.6718,0.6742,0.675,0.6847,0.678,0.6785,0.6789,0.6791,0.7006,0.7008,0,0,0,0,0,0,0.6436,0.6453,0.6589,0.6595,0.6504,0.6575,0.6586,0.6619,0.6679,0.6686,0.6639,0.6637,0.6733,0.6744,0.6754,0.6845,0.6786,0.6792,0.6795,0.7004,0.7006,0.7009,0,0,0,0,0,0,0.6432,0.6448,0.6585,0.6525,0.6542,0.658,0.6616,0.6622,0.6646,0.6689,0.6695,0.6657,0.6732,0.6746,0.6816,0.6849,0.6794,0.68,0.7001,0.7004,0.7007,0.7027,0,0,0,0,0,0,0.6426,0.6446,0.6474,0.6525,0.6545,0.6645,0.6618,0.6625,0.6656,0.6654,0.6707,0.6714,0.6732,0.6807,0.6821,0.6856,0.6804,0.6998,0.7002,0.7006,0.7024,0.7031,0.7037,0,0,0,0,0,0.642,0.6477,0.6476,0.6492,0.6581,0.6647,0.6658,0.6677,0.6658,0.6687,0.6715,0.6713,0.6842,0.6814,0.683,0.6867,0.6996,0.7001,0.7006,0.7021,0.703,0.7037,0,0,0,0,0,0,0.643,0.6484,0.6483,0.6558,0.6598,0.6647,0.6684,0.6685,0.6731,0.6728,0.6749,0.6761,0.6831,0.6856,0.6823,0.6942,0.6917,0.6926,0.6923,0.6932,0.6938,0.6931,0.6809,0,0,0,0,0,0.644,0.6488,0.6533,0.6595,0.6615,0.6646,0.6675,0.6686,0.6728,0.6745,0.6777,0.6819,0.6869,0.6902,0.695,0.7027,0.7039,0.7061,0.7067,0.7072,0.7079,0.7122,0.7133,0.7025,0.7025,0.7024,0,0,0.6463,0.6499,0.6528,0.6598,0.663,0.668,0.666,0.6714,0.6751,0.6753,0.6821,0.6846,0.6894,0.6968,0.7002,0.6991,0.7112,0.7078,0.7082,0.7087,0.7128,0.7139,0.7148,0.7028,0.7027,0.7027,0,0,0.6531,0.6562,0.6617,0.665,0.6698,0.6718,0.6731,0.678,0.6797,0.6865,0.6867,0.6912,0.6998,0.7032,0.7061,0.7141,0.7141,0.7156,0.719,0.7232,0.724,0.7248,0.7276,0.7287,0.7163,0.7163,0.7163,0,0.6554,0.6628,0.6646,0.6699,0.673,0.6734,0.679,0.682,0.6882,0.6904,0.689,0.6998,0.703,0.7112,0.7132,0.7154,0.7171,0.715,0.7237,0.7245,0.7253,0.728,0.7291,0.7164,0.7164,0.7164,0.7164,0,0.6654,0.6706,0.6744,0.6803,0.6839,0.6893,0.6919,0.6953,0.696,0.6982,0.7052,0.7091,0.7147,0.7167,0.7175,0.725,0.7242,0.7233,0.7208,0.7264,0.7291,0.7301,0.7167,0.7166,0.7166,0.7165,0,0,0.6731,0.6798,0.6812,0.6839,0.6893,0.6933,0.6988,0.7043,0.7071,0.7114,0.7161,0.7233,0.7225,0.7257,0.7269,0.7305,0.7366,0.7292,0.7293,0.7304,0.7452,0.7459,0.7471,0.7366,0.7368,0.737,0.7448,0,0.6804,0.6901,0.6918,0.7003,0.7052,0.7055,0.7103,0.7142,0.7163,0.7208,0.7232,0.7283,0.7268,0.7288,0.7324,0.7351,0.7396,0.7346,0.7411,0.7413,0.7399,0.7485,0.7492,0.7564,0.7459,0.746,0.7462,0,0.6903,0.6947,0.7037,0.7084,0.7105,0.7147,0.7199,0.7241,0.7285,0.7298,0.7334,0.7341,0.7399,0.7371,0.7452,0.7417,0.7444,0.7462,0.7465,0.7472,0.7441,0.7495,0.7587,0.7598,0.7478,0.7477,0.7475,0,0.695,0.7032,0.7097,0.7119,0.7176,0.7206,0.7231,0.7272,0.7304,0.7349,0.737,0.7421,0.7449,0.7489,0.7511,0.7488,0.7589,0.7563,0.7602,0.7602,0.7624,0.7622,0.7723,0.7641,0.7641,0.764,0.764,0,0.703,0.7085,0.7119,0.7158,0.722,0.7239,0.73,0.7324,0.7361,0.7406,0.7413,0.7455,0.748,0.7526,0.7543,0.7607,0.762,0.7632,0.7636,0.7632,0.763,0.7651,0.7646,0.7643,0.7643,0.7642,0.7642,0,0.7094,0.7118,0.7189,0.7236,0.7249,0.7292,0.7333,0.7372,0.7393,0.745,0.7465,0.7499,0.7553,0.7578,0.7645,0.7657,0.773,0.773,0.7715,0.7716,0.7754,0.775,0.7871,0.7888,0.7795,0.7796,0.7796,0,0.7143,0.7186,0.7237,0.7267,0.7293,0.7341,0.7374,0.7394,0.7428,0.748,0.7513,0.7567,0.7612,0.7699,0.773,0.7781,0.7783,0.7822,0.7791,0.7786,0.7784,0.7782,0.7786,0.7828,0.7829,0.783,0.783,0,0.7229,0.7239,0.7285,0.7335,0.7373,0.7414,0.7454,0.7478,0.7505,0.7543,0.7598,0.7632,0.7701,0.7755,0.7809,0.7835,0.7838,0.784,0.7851,0.7848,0.7837,0.7844,0.773,0.7837,0.7836,0.7836,0.7835,0.7835,0.7288,0.7325,0.7367,0.7418,0.745,0.7487,0.7526,0.7552,0.7599,0.7656,0.7665,0.7724,0.7767,0.7839,0.7867,0.7914,0.7905,0.7922,0.7926,0.793,0.7932,0.7829,0.7924,0.7923,0.7923,0.7923,0.7923,0,0.7374,0.7401,0.7447,0.7503,0.7543,0.7541,0.7585,0.7619,0.7671,0.771,0.7754,0.7817,0.787,0.7905,0.7958,0.7989,0.7991,0.8002,0.8,0.8006,0.7937,0.7922,0.7999,0.7999,0.7999,0.7999,0.7999,0.7999,0.7423,0.7487,0.7502,0.7582,0.7609,0.7666,0.7692,0.7726,0.7757,0.7828,0.7871,0.7894,0.7932,0.7988,0.8036,0.8045,0.8064,0.8075,0.8084,0.8019,0.8011,0.8004,0.7989,0.8079,0.808,0.8149,0.815,0.8151]}]]